Language selection

My Weather Profile Weather Topics  | 

Western Lake Superior: Past 24 Hour Conditions

 

Armstrong Airport

04:00 PM EDT 20 October 2021
Disclaimer

This table is a summary of hourly weather conditions for the past 24 hours.
Please note that these observations might not always be representative of weather conditions over their associated marine area.

Date / Time
(EDT)
Wind(knots) Conditions Visibility(km) Pressure(kPa) Air tempC) Relative humidity(%) Dew pointC)
20 October 2021
16:00 WNW 6 Sunny 16 102.2 5 53 -4
15:00 W 4 Mainly Sunny 16 102.2 4 54 -4
14:00 WNW 4 Cloudy 16 102.4 3 58 -4
13:00 N 5 Cloudy 16 102.4 2 64 -4
12:00 NNE 5 Cloudy 16 102.5 2 66 -4
11:00 N 4 Cloudy 16 102.5 1 67 -4
10:00 NNW 5 Cloudy 16 102.5 1 69 -4
9:00 N 2 Cloudy 16 102.5 1 71 -4
8:00 NNW 3 Cloudy 16 102.5 1 71 -4
7:00 NNE 2 Cloudy 16 102.5 1 72 -4
6:00 N 4 Cloudy 16 102.4 1 73 -3
5:00 N 2 Cloudy 16 102.4 2 72 -3
4:00 NNE 2 Cloudy 16 102.4 2 72 -3
3:00 NNE 4 Cloudy 16 102.3 2 72 -3
2:00 N 5 Cloudy 16 102.3 3 72 -2
1:00 N 4 Cloudy 16 102.2 3 71 -1
0:00 N 5 gust 15 Cloudy 16 102.2 4 70 -1
19 October 2021
23:00 N 4 Cloudy 16 102.1 5 70 0
22:00 N 4 Cloudy 16 102.1 5 71 0
21:00 N 7 Cloudy 16 102.0 5 75 1
20:00 NNW 9 gust 16 Cloudy 16 102.0 6 80 2
19:00 N 8 gust 18 Cloudy 16 101.8 6 87 4
18:00 NNW 8 gust 15 Cloudy 16 101.7 7 87 5
17:00 N 10 gust 18 Cloudy 16 101.6 8 82 5
16:00 NNW 11 gust 18 Cloudy 16 101.5 8 83 5

Zoom-in to make a selection

Map of Great Lakes - Lake Superior marine weather areas Mid Superior - 45001 East Superior - 45004 West Superior - 45006 Slate Island - 45136 Lake Of the Woods - 45148 Kenora Airport Royal Island Armstrong Airport Caribou Island Marathon Airport Pukaskwa National Park Thunder Bay Airport Welcome Island Little Flatland Island Sault Ste. Marie Airport Wawa Airport
Legend:
buoy Buoy
land station Land Station

Great Lakes - Lake Superior Area

Another Region

What we are doing

Date modified: